Change the Weather History Date:

Saturday, December 14, 2013

  Actual Average Record
Temperature  
Mean Temperature 26 °F -  
Max Temperature 30 °F 35 °F 60 °F (1975)
Min Temperature 21 °F 19 °F -8 °F (1985)
Degree Days  
Heating Degree Days 40    
Moisture  
Dew Point 23 °F    
Average Humidity 82    
Maximum Humidity 85    
Minimum Humidity 77    
Precipitation  
Precipitation 0.04 in - - ()
Sea Level Pressure  
Sea Level Pressure 30.02 in    
Wind  
Wind Speed 15 mph (NE)    
Max Wind Speed 20 mph    
Max Gust Speed 25 mph    
Visibility 3 miles    
Events Fog , Snow    
Averages and records for this station are not official NWS values.
T = Trace of Precipitation, MM = Missing Value Source: NWS Daily Summary

Daily Weather History Graph

Daily Weather History Graph

Search for Another Location

Airport or City:

Trip Planner

Search our weather history database for the weather conditions in past years. The results will help you decide how hot, cold, wet, or windy it might be!

Date:

Astronomy

Dec. 14, 2013 Rise Set
Actual Time 7:14 AM CST 4:18 PM CST
Civil Twilight 6:42 AM CST 4:51 PM CST
Nautical Twilight 6:06 AM CST 5:26 PM CST
Astronomical Twilight 5:32 AM CST 6:00 PM CST
Moon 2:42 PM CST (12/14) 4:32 AM CST (12/14)
Length of Visible Light 10h 08m
Length of Day
9h 04m
Waxing Gibbous, 94% of the Moon is Illuminated
Dec 14
Waxing Gibbous
Dec 17
Full
Dec 25
Last Quarter
Jan 1
New
Jan 7
First Quarter

Hourly Weather History & Observations

Time (CST) Temp. Windchill Dew Point Humidity Pressure Visibility Wind Dir Wind Speed Gust Speed Precip Events Conditions
12:53 AM 30.0 °F 18.7 °F 24.1 °F 79% 30.14 in 5.0 mi ENE 16.1 mph 24.2 mph N/A   Haze
1:07 AM 30.0 °F 17.5 °F 24.1 °F 79% 30.11 in 5.0 mi ENE 19.6 mph 25.3 mph N/A   Haze
1:53 AM 30.0 °F 18.3 °F 24.1 °F 79% 30.14 in 5.0 mi East 17.3 mph - N/A   Haze
2:53 AM 28.9 °F 16.9 °F 24.1 °F 82% 30.12 in 3.0 mi ENE 17.3 mph - N/A   Haze
3:53 AM 28.9 °F 16.9 °F 24.1 °F 82% 30.10 in 5.0 mi ENE 17.3 mph 23.0 mph N/A   Haze
4:53 AM 28.9 °F 16.1 °F 24.1 °F 82% 30.10 in 5.0 mi ENE 19.6 mph - N/A   Haze
5:18 AM 28.9 °F 16.5 °F 24.1 °F 82% 30.07 in 1.8 mi East 18.4 mph - 0.00 in Snow Light Snow
5:44 AM 28.0 °F 16.1 °F 24.1 °F 85% 30.07 in 0.8 mi East 16.1 mph - 0.00 in Snow Light Snow
5:53 AM 28.0 °F 15.7 °F 24.1 °F 85% 30.10 in 0.5 mi East 17.3 mph - 0.01 in Fog , Snow Snow
6:16 AM 28.0 °F 15.7 °F 24.1 °F 85% 30.06 in 0.8 mi ENE 17.3 mph - 0.00 in Snow Light Snow
6:33 AM 28.0 °F 16.1 °F 24.1 °F 85% 30.05 in 1.0 mi ENE 16.1 mph - 0.00 in Snow Light Snow
6:41 AM 28.0 °F 15.3 °F 24.1 °F 85% 30.05 in 0.8 mi ENE 18.4 mph 23.0 mph 0.00 in Snow Light Snow
6:53 AM 28.0 °F 16.5 °F 24.1 °F 85% 30.08 in 0.8 mi ENE 15.0 mph 25.3 mph 0.00 in Snow Light Snow
7:12 AM 28.0 °F 15.3 °F 24.1 °F 85% 30.05 in 1.0 mi ENE 18.4 mph 23.0 mph 0.01 in Snow Light Snow
7:23 AM 28.0 °F 16.5 °F 24.1 °F 85% 30.06 in 1.0 mi ENE 15.0 mph - 0.01 in Snow Light Snow
7:30 AM 28.0 °F 16.5 °F 24.1 °F 85% 30.06 in 1.0 mi ENE 15.0 mph - 0.01 in Snow Light Snow
7:45 AM 28.0 °F 15.7 °F 24.1 °F 85% 30.05 in 0.8 mi East 17.3 mph - 0.01 in Snow Light Snow
7:53 AM 28.0 °F 16.1 °F 24.1 °F 85% 30.08 in 0.8 mi East 16.1 mph - 0.01 in Snow Light Snow
8:43 AM 28.0 °F 17.0 °F 24.1 °F 85% 30.04 in 0.5 mi ENE 13.8 mph - 0.00 in Fog , Snow Light Snow
8:53 AM 28.0 °F 16.5 °F 24.1 °F 85% 30.07 in 0.8 mi ENE 15.0 mph - 0.00 in Snow Light Snow
9:06 AM 28.0 °F 17.0 °F 24.1 °F 85% 30.04 in 1.2 mi ENE 13.8 mph - 0.00 in Snow Light Snow
9:14 AM 28.0 °F 16.5 °F 24.1 °F 85% 30.04 in 1.0 mi ENE 15.0 mph - 0.00 in Snow Light Snow
9:36 AM 28.0 °F 16.5 °F 24.1 °F 85% 30.03 in 0.5 mi ENE 15.0 mph - 0.01 in Fog , Snow Light Snow
9:53 AM 28.0 °F 16.1 °F 24.1 °F 85% 30.06 in 0.2 mi ENE 16.1 mph - 0.01 in Fog , Snow Snow
10:22 AM 28.0 °F 17.0 °F 24.1 °F 85% 30.02 in 0.2 mi ENE 13.8 mph - 0.00 in Fog , Snow Light Snow
10:53 AM 28.9 °F 18.6 °F 24.1 °F 82% 30.04 in 0.5 mi ENE 12.7 mph - 0.00 in Snow Snow
11:53 AM 28.9 °F 18.6 °F 24.1 °F 82% 30.01 in 0.5 mi ENE 12.7 mph - 0.01 in Snow Snow
12:53 PM 28.9 °F 19.2 °F 24.1 °F 82% 29.98 in 0.5 mi NE 11.5 mph - 0.00 in Snow Snow
1:00 PM 28.9 °F 18.6 °F 24.1 °F 82% 29.94 in 1.0 mi NE 12.7 mph - 0.00 in Snow Light Snow
1:23 PM 28.0 °F 18.1 °F 23.0 °F 81% 29.94 in 2.0 mi NE 11.5 mph - 0.00 in Snow Light Snow
1:53 PM 28.9 °F 19.2 °F 24.1 °F 82% 29.97 in 1.2 mi NE 11.5 mph - 0.00 in Snow Light Snow
2:53 PM 28.9 °F 21.1 °F 23.0 °F 78% 29.97 in 1.2 mi NNE 8.1 mph - 0.00 in   Haze
3:00 PM 28.9 °F 21.9 °F 23.0 °F 78% 29.94 in 3.0 mi North 6.9 mph - N/A   Haze
3:53 PM 28.0 °F 20.8 °F 21.9 °F 78% 29.97 in 4.0 mi NNE 6.9 mph - 0.00 in   Haze
4:27 PM 28.0 °F 20.8 °F 21.9 °F 78% 29.95 in 4.0 mi North 6.9 mph - N/A   Haze
4:38 PM 27.0 °F 20.5 °F 23.0 °F 85% 29.94 in 7.0 mi North 5.8 mph - N/A   Overcast
4:53 PM 27.0 °F 20.5 °F 23.0 °F 85% 29.97 in 8.0 mi North 5.8 mph - N/A   Overcast
5:53 PM 27.0 °F 21.6 °F 21.9 °F 81% 29.97 in 9.0 mi NNW 4.6 mph - N/A   Overcast
6:04 PM 27.0 °F 19.5 °F 21.9 °F 81% 29.95 in 9.0 mi NNW 6.9 mph - N/A   Overcast
6:19 PM 27.0 °F 18.7 °F 21.9 °F 81% 29.95 in 9.0 mi NNW 8.1 mph - N/A   Overcast
6:53 PM 26.1 °F 17.6 °F 21.0 °F 81% 29.99 in 9.0 mi NW 8.1 mph - N/A   Overcast
7:53 PM 26.1 °F 16.2 °F 19.9 °F 78% 29.99 in 10.0 mi NW 10.4 mph - N/A   Overcast
8:53 PM 25.0 °F 15.5 °F 19.0 °F 78% 29.98 in 8.0 mi WNW 9.2 mph - N/A   Overcast
9:53 PM 24.1 °F 14.4 °F 18.0 °F 77% 29.98 in 7.0 mi WNW 9.2 mph - N/A   Overcast
10:53 PM 21.9 °F 11.7 °F 18.0 °F 85% 29.96 in 6.0 mi West 9.2 mph - N/A   Overcast
11:53 PM 21.0 °F 10.6 °F 17.1 °F 85% 29.94 in 6.0 mi West 9.2 mph - N/A   Overcast